Madison, WI

4:42 AM CDT on April 27, 2017 (GMT -0500)
Dane County Regional-Truax

Weather History for KMSN - January, 2011

Change the Weather History Date:

Thursday, January 20, 2011

  Actual Average Record
Temperature  
Mean Temperature 9 °F 18 °F  
Max Temperature 17 °F 26 °F 53 °F (1906)
Min Temperature 0 °F 11 °F -27 °F (1994)
Degree Days  
Heating Degree Days 56 47  
Month to date heating degree days 950 929  
Since 1 July heating degree days 3682 3808  
Cooling Degree Days 0 0  
Month to date cooling degree days 0 0  
Year to date cooling degree days 0 0  
Moisture  
Dew Point 0 °F    
Average Humidity 73    
Maximum Humidity 86    
Minimum Humidity 59    
Precipitation  
Precipitation 0.00 in 0.04 in 1.11 in (1898)
Month to date precipitation 0.81 0.80  
Year to date precipitation 0.81 0.80  
Snow  
Snow 0.00 in 0.40 in 9.40 in (1898)
Month to date snowfall 12.3 8.3  
Since 1 July snowfall 33.1 25.9  
Snow Depth 7.00 in    
Sea Level Pressure  
Sea Level Pressure 30.08 in    
Wind  
Wind Speed 7 mph (WNW)    
Max Wind Speed 18 mph    
Max Gust Speed 23 mph    
Visibility 10 miles    
Events      
T = Trace of Precipitation, MM = Missing Value Source: NWS Daily Summary

Daily Weather History Graph

Daily Weather History Graph

Search for Another Location

Airport or City:

Trip Planner

Search our weather history database for the weather conditions in past years. The results will help you decide how hot, cold, wet, or windy it might be!

Date:

Astronomy

Jan. 20, 2011 Rise Set
Actual Time 7:23 AM CST 4:53 PM CST
Civil Twilight 6:52 AM CST 5:24 PM CST
Nautical Twilight 6:17 AM CST 5:59 PM CST
Astronomical Twilight 5:43 AM CST 6:33 PM CST
Moon 6:19 PM CST (1/20) 7:40 AM CST (1/20)
Length of Visible Light 10h 32m
Length of Day
9h 30m
Full, 99% of the Moon is Illuminated
Jan 20
Full
Jan 26
Last Quarter
Feb 2
New
Feb 11
First Quarter
Feb 18
Full

Hourly Weather History & Observations

Time (CST) Temp. Windchill Dew Point Humidity Pressure Visibility Wind Dir Wind Speed Gust Speed Precip Events Conditions
12:53 AM 3.9 °F - -0.0 °F 84% 30.20 in 10.0 mi Calm Calm - N/A   Clear
1:53 AM 9.0 °F - 3.0 °F 77% 30.20 in 10.0 mi Calm Calm - N/A   Overcast
2:53 AM 10.0 °F - 3.0 °F 73% 30.20 in 10.0 mi Calm Calm - N/A   Overcast
3:53 AM 10.0 °F - 3.0 °F 73% 30.17 in 10.0 mi Calm Calm - N/A   Mostly Cloudy
4:53 AM 10.0 °F - 3.0 °F 73% 30.17 in 10.0 mi Calm Calm - N/A   Overcast
5:53 AM 10.0 °F - 3.0 °F 73% 30.15 in 10.0 mi Calm Calm - N/A   Mostly Cloudy
6:53 AM 10.0 °F 1.8 °F 1.9 °F 70% 30.14 in 10.0 mi SW 4.6 mph - N/A   Mostly Cloudy
7:53 AM 10.0 °F 0.4 °F 1.9 °F 70% 30.13 in 10.0 mi SW 5.8 mph - N/A   Scattered Clouds
8:53 AM 9.0 °F -0.9 °F 1.9 °F 73% 30.14 in 10.0 mi SW 5.8 mph - N/A   Scattered Clouds
9:53 AM 10.0 °F 0.4 °F 1.9 °F 70% 30.11 in 10.0 mi WSW 5.8 mph - N/A   Partly Cloudy
10:53 AM 12.9 °F 1.6 °F 1.9 °F 62% 30.08 in 10.0 mi WSW 8.1 mph - N/A   Scattered Clouds
11:53 AM 15.1 °F 7.7 °F 3.0 °F 59% 30.04 in 10.0 mi Variable 4.6 mph - N/A   Partly Cloudy
12:53 PM 15.1 °F 3.3 °F 3.9 °F 61% 30.00 in 10.0 mi WNW 9.2 mph 18.4 mph N/A   Clear
1:53 PM 16.0 °F 3.6 °F 5.0 °F 62% 29.97 in 10.0 mi WNW 10.4 mph - N/A   Scattered Clouds
2:53 PM 15.1 °F -0.6 °F 3.0 °F 59% 29.98 in 10.0 mi NW 16.1 mph 23.0 mph N/A   Scattered Clouds
3:53 PM 12.9 °F -0.2 °F 1.9 °F 62% 29.99 in 10.0 mi NW 10.4 mph - N/A   Mostly Cloudy
4:53 PM 12.0 °F 1.5 °F 1.0 °F 61% 29.99 in 10.0 mi NW 6.9 mph - N/A   Mostly Cloudy
5:53 PM 10.0 °F -5.9 °F 1.0 °F 67% 30.01 in 10.0 mi NW 13.8 mph 19.6 mph N/A   Partly Cloudy
6:53 PM 7.0 °F -9.1 °F -4.0 °F 61% 30.02 in 10.0 mi NW 12.7 mph 18.4 mph N/A   Partly Cloudy
7:53 PM 5.0 °F -10.8 °F -5.1 °F 63% 30.04 in 10.0 mi NW 11.5 mph - N/A   Clear
8:53 PM 3.9 °F -10.4 °F -7.1 °F 60% 30.05 in 10.0 mi NW 9.2 mph - N/A   Clear
9:53 PM 1.9 °F -10.6 °F -9.0 °F 60% 30.06 in 10.0 mi NW 6.9 mph - N/A   Clear
10:53 PM 1.0 °F -14.0 °F -9.9 °F 60% 30.07 in 10.0 mi NW 9.2 mph - N/A   Clear
11:53 PM -0.0 °F -13.0 °F -9.9 °F 63% 30.07 in 10.0 mi NW 6.9 mph - N/A   Clear